DECAYED
Showing default

FLOCK 4Q 17, 58283 (Decayed)

Orbit data source: Space-Track

FLOCK 4Q 17, 58283 was a payload satellite owned by Planet (US) in LEO that was launched on Sat, 11 Nov 2023 UTC via an FALCON 9 launch vehicle from the Air Force Western Test Range (AFWTR). Payload-class satellites include a variety of spacecraft equipped with specific instruments for various scientific and technological missions. These include communications satellites like Starlink; space stations such as the ISS; scientific satellites like the Hubble; Earth observation satellites from companies like Planet Labs, Umbra, and HawkEye 360; GPS; miniature CubeSats for education and research; and military/defense satellites.

Not visible in the next 10 days
Identifier
58283, 2023-174AD
Orbit
Decayed
Country
Flag of USUS
Related business
Manufacturer
Planet
Mission
Decayed Commercial Imaging
Bus & Motor
CUBESAT 3U, Unknown motor
Mass
5.7 kg wet, 5.7 kg dry
Launch date (UTC)
2023-11-11 (3 years ago)
Launch vehicle
FALCON 9
Launch site
Air Force Western Test Range (AFWTR)
Object type
Payload
Rocket body
Debris
Shape & HBR
Box + 2 Pan, 1.0 m
Radar Cross Section
0.072 m², Medium (>0.1 m² and < 1m²)

Expand to show TLE details & history
Last TLE update: 2 months ago

TLE from 2 months ago
0 FLOCK 4Q 17
1 58283U 23174AD  26120.28515472  .12490251  25312-5  70874-3 0  9999
2 58283  97.3430 215.7936 0013756 233.3123 126.6913 16.40858732138730
Epoch: 2026-04-30T06:50Z
TLE epoch observation values (Epoch: 2026-04-30T06:50:37.367Z)
Latitude
-0.00012°
Longitude
-105.09604°
Altitude
172.159 km
Speed
7.8 km/s
True Right ascension
14h 23m 10s
True Declination
0° 00' 00"
Sunlit
Object was in full shadow at epoch
Visualization orbit readout
Latitude
Unknown
Longitude
Unknown
Altitude
Unknown
Speed
Unknown
Apparent Right ascension
Unknown
Apparent Declination
Unknown
Sunlit
N/A
Visualization observer readout
Local Sidereal Time
21:39:34
Azimuth
Unknown
Elevation
Unknown
Doppler factor
Unknown
Orbital elements
Apogee altitude
169.317 km
Perigee altitude
151.329 km
Semi-major axis
6,538.46 km
Eccentricity
0.00138
Inclination
97.343°
RAAN
215.7936°
Arg. of periapsis
233.3123°
True anomaly
126.81757°
Mean anomaly
126.6913°
Eccentric anomaly
126.75445°
Mean motion
4.10516 °/min
Orbital period
87.69 mins
BSTAR
0.00070874
Loading maneuver chart data...
Computing Atmospheric mass density...

Documentation

Showing up to 5 results
|